Weather in Khal-Kiloy

Russia / Chechen Republic     42°49′30″N   45°47′19″E
temp.,
°C
wind,
m/s
gust,
m/s
humid.,
%
clouds,
%
prec.,
mm/h
press.,
hPa
HPBL,
m
21 january, fri
fri2100:00−16s33844 0.0 102741
03:00−16s33740 0.0 102734
06:00−13s3366100 0.0 102638
09:00−7s2368100 0.0 1023310
12:00−2ese125911 0.0 1019652
15:00−1ne11611 0.0 1017450
18:00−9sse44761 0.0 102352
21:00−9sse46680 0.0 102365
22 january, sat
sat2200:00−9sse56655 0.0 102283
03:00−9sse56661 0.0 102076
06:00−7sse56667 0.0 101878
09:00−3sse57615 0.0 1015150
12:00+3s355443 0.0 1010518
15:00+2sse2467100 0.0 1010163
18:00−3sse4571100 0.0 101464
21:00−4s4567100 0.0 101460
23 january, sun
sun2300:00−4s4566100 0.0 101360
03:00−4s4563100 0.0 101262
06:00−4s4563100 0.0 101160
09:00−1s465627 0.0 1009107
12:00+4s46459 0.0 1005464
15:00+3s46565 0.0 1005316
18:00−4s56620 0.0 101186
21:00−4s46591 0.0 101277
24 january, mon
mon2400:00−5s456315 0.0 101260
03:00−5s44660 0.0 101349
06:00−5s33701 0.0 101336
09:00−1s226393 0.0 101183
12:00+3wsw035797 0.0 1009498
15:00+1wnw0271100 0.0 1010414
18:00−4s2289100 0.1 101741
21:00−6s33743 0.1 102040
25 january, tue
tue2500:00−8s22703 0.0 102225
03:00−9s227240 0.0 102529
06:00−10s227243 0.0 102629
09:00−6s116727 0.0 1025141
12:00−4n227684 0.1 1024693
15:00−4n217333 0.1 1023391
18:00−8sse228799 0.0 102631
21:00−8sse346918 0.0 102556